パンスターズ彗星

C/2018 X3 ( PanSTARRS )

English version
Home page
Updated on August 15, 2020

---------------------------------------------------------------------

・ プロフィール

発見日 2018年12月12日
発見光度 20.5等
発見者 Pan-STARRS 1 telescope (Haleakala)

・ 写真集

・ 軌道要素

Epoch 2018 Dec. 28.0 TT = JDT 2458480.5
T 2018 Dec. 30.79434 TT                                 MPCW
q   2.6988908            (2000.0)            P               Q
n   0.02252160     Peri.  359.83282     +0.19417739     -0.71284371
a  12.4185230      Node    78.92484     +0.90081424     -0.14240295
e   0.7826722      Incl.   43.36904     +0.38836689     +0.68671337
P  43.76
From 50 observations 2018 Oct. 4-2019 Jan. 4, mean residual 0".5.

・ 光度変化

        m1 = 14.0 + 5 logΔ + 10.0 log r

---------------------------------------------------------------------

軌道要素はM.P.E.C. 2019-J142に掲載されたものです。
光度グラフはComet for Windowsで作成したものです。

---------------------------------------------------------------------

Copyright(C) Seiichi Yoshida (comet@aerith.net). All rights reserved.